TimeCDT,TemperatureF,Dew PointF,Humidity,Sea Level PressureIn,VisibilityMPH,Wind Direction,Wind SpeedMPH,Gust SpeedMPH,PrecipitationIn,Events,Conditions,WindDirDegrees,DateUTC
12:15 AM,66.2,44.6,46,29.79,10.0,SW,9.2,19.6,N/A,,Clear,230,2013-03-16 05:15:00
12:35 AM,64.4,42.8,45,29.79,10.0,SW,12.7,16.1,N/A,,Clear,220,2013-03-16 05:35:00
12:55 AM,64.4,41.0,42,29.79,10.0,SW,10.4,18.4,N/A,,Clear,230,2013-03-16 05:55:00
1:15 AM,64.4,41.0,42,29.79,10.0,SW,10.4,16.1,N/A,,Clear,230,2013-03-16 06:15:00
1:35 AM,64.4,41.0,42,29.79,10.0,SW,10.4,18.4,N/A,,Clear,230,2013-03-16 06:35:00
1:55 AM,64.4,41.0,42,29.79,10.0,SW,9.2,-,N/A,,Clear,230,2013-03-16 06:55:00
2:15 AM,64.4,41.0,42,29.79,10.0,SW,9.2,-,N/A,,Clear,230,2013-03-16 07:15:00
2:35 AM,64.4,41.0,42,29.78,10.0,SW,9.2,17.3,N/A,,Clear,230,2013-03-16 07:35:00
2:55 AM,62.6,41.0,45,29.78,10.0,SW,8.1,-,N/A,,Clear,230,2013-03-16 07:55:00
3:15 AM,62.6,39.2,42,29.78,10.0,SW,8.1,-,N/A,,Clear,230,2013-03-16 08:15:00
3:35 AM,62.6,39.2,42,29.78,10.0,SW,8.1,-,N/A,,Clear,230,2013-03-16 08:35:00
3:55 AM,62.6,39.2,42,29.77,10.0,SW,10.4,16.1,N/A,,Clear,230,2013-03-16 08:55:00
4:15 AM,64.4,39.2,40,29.77,10.0,SW,13.8,21.9,N/A,,Clear,230,2013-03-16 09:15:00
4:35 AM,64.4,39.2,40,29.77,10.0,WSW,12.7,18.4,N/A,,Clear,240,2013-03-16 09:35:00
4:55 AM,64.4,41.0,42,29.77,10.0,WSW,9.2,16.1,N/A,,Clear,240,2013-03-16 09:55:00
5:15 AM,64.4,41.0,42,29.78,10.0,WSW,10.4,18.4,N/A,,Clear,240,2013-03-16 10:15:00
5:35 AM,64.4,41.0,42,29.78,10.0,WSW,10.4,19.6,N/A,,Clear,240,2013-03-16 10:35:00
5:55 AM,64.4,41.0,42,29.78,10.0,WSW,10.4,17.3,N/A,,Clear,240,2013-03-16 10:55:00
6:15 AM,62.6,41.0,45,29.79,10.0,WSW,9.2,-,N/A,,Clear,250,2013-03-16 11:15:00
6:50 AM,60.8,41.0,48,29.84,10.0,NW,9.2,-,N/A,,Mostly Cloudy,320,2013-03-16 11:50:00
7:47 AM,59.0,41.0,51,29.84,10.0,West,5.8,-,N/A,,Mostly Cloudy,280,2013-03-16 12:47:00
8:54 AM,62.6,41.0,45,29.85,10.0,WSW,8.1,16.1,N/A,,Mostly Cloudy,250,2013-03-16 13:54:00
9:53 AM,64.4,42.8,45,29.87,10.0,WNW,11.5,-,N/A,,Mostly Cloudy,290,2013-03-16 14:53:00
10:45 AM,66.2,42.8,43,29.87,10.0,NNW,6.9,-,N/A,,Overcast,340,2013-03-16 15:45:00
11:45 AM,66.2,44.6,46,29.88,10.0,WNW,6.9,-,N/A,,Mostly Cloudy,290,2013-03-16 16:45:00
12:55 PM,69.8,44.6,40,29.87,10.0,North,9.2,-,N/A,,Mostly Cloudy,350,2013-03-16 17:55:00
1:51 PM,71.6,44.6,38,29.85,10.0,North,8.1,-,N/A,,Mostly Cloudy,360,2013-03-16 18:51:00
2:50 PM,71.6,44.6,38,29.82,10.0,NNE,11.5,-,N/A,,Mostly Cloudy,30,2013-03-16 19:50:00
3:55 PM,73.4,46.4,38,29.80,10.0,NNE,10.4,-,N/A,,Mostly Cloudy,30,2013-03-16 20:55:00
4:45 PM,69.8,44.6,40,29.80,10.0,NE,12.7,25.3,N/A,,Mostly Cloudy,40,2013-03-16 21:45:00
5:52 PM,64.4,41.0,42,29.81,10.0,NE,13.8,19.6,N/A,,Mostly Cloudy,40,2013-03-16 22:52:00
6:52 PM,59.0,39.2,48,29.83,10.0,NNE,11.5,18.4,N/A,,Mostly Cloudy,20,2013-03-16 23:52:00
7:51 PM,55.4,37.4,51,29.85,10.0,NE,9.2,17.3,N/A,,Mostly Cloudy,40,2013-03-17 00:51:00
8:46 PM,51.8,37.4,58,29.88,10.0,NNE,13.8,20.7,N/A,,Overcast,30,2013-03-17 01:46:00
8:55 PM,50.0,37.4,62,29.89,8.0,NNE,10.4,-,N/A,,Mostly Cloudy,30,2013-03-17 01:55:00
9:15 PM,50.0,37.4,62,29.89,9.0,NNE,6.9,-,N/A,,Overcast,30,2013-03-17 02:15:00
9:35 PM,50.0,35.6,58,29.90,9.0,NNE,8.1,-,N/A,,Overcast,30,2013-03-17 02:35:00
9:55 PM,48.2,35.6,62,29.90,9.0,NE,6.9,-,N/A,,Overcast,50,2013-03-17 02:55:00
10:15 PM,48.2,35.6,62,29.91,9.0,NE,6.9,-,N/A,,Overcast,40,2013-03-17 03:15:00
10:55 PM,48.2,35.6,62,29.91,8.0,ENE,9.2,-,N/A,,Overcast,60,2013-03-17 03:55:00
11:15 PM,46.4,35.6,66,29.91,8.0,NE,4.6,-,N/A,,Overcast,40,2013-03-17 04:15:00
11:35 PM,46.4,35.6,66,29.91,8.0,ENE,6.9,-,N/A,,Overcast,70,2013-03-17 04:35:00
11:55 PM,46.4,35.6,66,29.90,8.0,ENE,5.8,-,N/A,,Overcast,60,2013-03-17 04:55:00